{"data":{"norad_id":57884,"epoch":"2026-05-25T05:03:27.358848Z","epoch_age_seconds":56990,"freshness":"FRESH","line1":"1 57884U 23144W   26145.21073332  .00000782  00000+0  37961-4 0  9991","line2":"2 57884  43.0020 212.7549 0001311 274.5834  85.4868 15.27571380149341","mean_motion":15.2757138,"eccentricity":0.0001311,"inclination_deg":43.002,"raan_deg":212.7549,"arg_perigee_deg":274.5834,"mean_anomaly_deg":85.4868,"bstar":3.7961e-5,"rev_number":14934,"period_min":94.267280655651,"perigee_km":482.17540266098,"apogee_km":483.97441242314,"semimajor_km":6861.2119075421,"source":"CELESTRAK","updated_at":"2026-05-25T13:38:18.450648Z"}}